Tracking 30922 objects as of 2-Jul-2025
HD Live streaming from Space Station
objects crossing your sky now

COSMOS 534

Track COSMOS 534 now!
10-day predictions
COSMOS 534 is classified as:


NORAD ID: 6269
Int'l Code: 1972-087G
Perigee: 1,355.1 km
Apogee: 1,474.8 km
Inclination: 74.0 °
Period: 114.0 minutes
Semi major axis: 7785 km
RCS: 0.7724 m2 (medium)
Launch date: November 1, 1972
Source: Commonwealth of Independent States (former USSR) (CIS)
Launch site: PLESETSK MISSILE AND SPACE COMPLEX (PKMTR)
Your satellite tracking list
STARLINK-31564
Track 1 satellite(s)




NASA's NSSDC Master Catalog

Two Line Element Set (TLE):
1 06269U 72087G   25182.42256617 -.00000006  00000-0  60837-4 0  9993
2 06269  74.0332 156.8214 0076856 314.7146 163.8876 12.63669623429322
Source of the keplerian elements: AFSPC